Regional Weather Roundup
Issued by NWS Green Bay, WI

Home | Current Version | Previous Version | Graphics & Text | Print | Product List | Glossary Off
Versions: 1 2 3 4 5 6 7 8 9 10 11 12 13 14 15 16 17 18 19 20 21 22 23 24 25 26 27 28 29 30 31 32 33 34 35 36 37 38 39 40 41 42 43 44 45 46 47 48 49 50

000
ASUS43 KGRB 231001
RWRGRB

NORTH-CENTRAL AND NORTHEAST WISCONSIN REGIONAL WEATHER ROUNDUP
NATIONAL WEATHER SERVICE GREEN BAY WI
500 AM CDT MON OCT 23 2017

WIZ005-009-010>012-018-019-231100-
NORTH CENTRAL WISCONSIN

CITY           SKY/WX    TMP DP  RH WIND       PRES   REMARKS
IRONWOOD       LGT RAIN  47  39  74 S12       29.82F
MANITOWISH WTR NOT AVBL
ARBOR VITAE    NOT AVBL
EAGLE RIVER    NOT AVBL
LAND O LAKES   MOCLDY    38  38 100 CALM      29.90F
RHINELANDER    CLOUDY    43  40  89 SW8       29.90F
PHILLIPS       CLOUDY    43  40  92 S7        29.86F
ANTIGO         NOT AVBL
TOMAHAWK       NOT AVBL
MERRILL        PTCLDY    31  31 100 CALM      29.91F
$$

WIZ013-073-231100-
NORTHEAST WISCONSIN

CITY           SKY/WX    TMP DP  RH WIND       PRES   REMARKS
IRON MOUNTAIN  FOG       32  30  92 CALM      29.91S VSB 1/4
MARINETTE      FOG       44  43  96 CALM      29.95F VSB 1/2
$$

WIZ017-030-035>037-045-231100-
CENTRAL WISCONSIN

CITY           SKY/WX    TMP DP  RH WIND       PRES   REMARKS
MEDFORD        NOT AVBL
WAUSAU         CLEAR     37  37 100 E3        29.90F
MOSINEE        LGT SNOW  34  34 100 CALM      29.92F VSB 3/4
MARSHFIELD     PTCLDY    38  36  92 S6        29.89F
WISC RAPIDS    CLOUDY    37  36  96 CALM      29.93F FOG
STEVENS POINT  NOT AVBL
WAUPACA        NOT AVBL
SHAWANO        FOG       42  41  96 CALM      29.94F VSB 1/4
CLINTONVILLE   NOT AVBL
WAUTOMA        FOG      N/A N/A N/A CALM      29.95F VSB 1/4
$$

WIZ038-039-048-051-231100-
FOX VALLEY

CITY           SKY/WX    TMP DP  RH WIND       PRES   REMARKS
NWS GREEN BAY  FOG       43  43 100 S3        29.95F VSB 1/2
APPLETON       NOT AVBL
OSHKOSH        FOG       40  40 100 S6        29.95S VSB 1
FOND DU LAC    MOCLDY    44  42  93 CALM      29.96S FOG
$$

WIZ022-050-052-231100-
EAST CENTRAL WISCONSIN

CITY           SKY/WX    TMP DP  RH WIND       PRES   REMARKS
EPHRAIM        FAIR      43  43  99 CALM      29.94S FOG
WASHINGTON ISL NOT AVBL
STURGEON BAY   FOG       43  42  97 CALM      29.95S VSB 1/2
MANITOWOC      FOG       44  44 100 CALM      29.97R VSB 1/2
SHEBOYGAN      CLOUDY    46  46 100 CALM      29.96S
$$

LMZ563-521-522-541>543-231100-
LAKESHORE

STATION/POSITION TIME  TEMP    WIND        PRES    VSBY  WAVE
                       AIR SEA DIR/SP/G                  HT/PER
                 (UTC) (F)     (DEG/KT/KT) (MB)    (MI)  (FT/S)
SHEBOYGAN LKSHOR 0900   50     310/  4/  5 1014.3F
KEWAUNEE LKSHORE 0930   45        CALM     1013.5F
NORTHPORT PIER   0940   44     200/  2/  3 1013.9F
N MID LAKE BUOY  0850   53 55  230/  4/  6 1015.0F         1/ 6
S GREEN BAY BUOY 0930   47 58  270/  4/  6 1014.0F
SISTER BAY LKSHO 0904   47        CALM       N/A
MENOMINEE LKSHOR 0930   44     220/  3/  4 1013.8F
$$




USA.gov is the U.S. government's official web portal to all federal, state and local government web resources and services.